[[{"header":{"parameterUnit":"m.s-1","parameterCategory":1,"la1":30.2991,"la2":30.254,"lo1":-89.0895,"lo2":-89.0444,"dy":0.0017,"dx":0.0017,"nx":28,"ny":28,"refTime":"2023-03-27T15:00:00:Z","depth":0,"parameterNumber":2,"parameterNumberName":"U-component_of_WINDS"},"data":[0,0,0,0,0,0,0,0,0,0,0,0,0,0,0,0,0,0,0,0,0,0,0,0,0,0,0,0,0,0,0,0,0,0,0,0,0,0,0,0,0,0,0,0,0,0,0,0,0,0,0,0,0,0,0,0,0,0,-1.449,-1.4492,0,-1.473,-1.4733,-1.4735,-1.4761,-1.4759,-1.4756,-1.4754,-1.5009,-1.5018,-1.5027,0,0,0,0,0,0,0,0,0,0,0,0,0,-1.4061,-1.4069,-1.4489,-1.4492,-1.4495,-1.4729,-1.4733,-1.4736,-1.4762,-1.4759,-1.4756,-1.4753,-1.5006,-1.5017,-1.5028,0,0,0,0,0,0,0,0,0,0,0,0,0,-1.4269,-1.4072,-1.4489,-1.4536,-1.4543,-1.4729,-1.4733,-1.4737,-1.4762,-1.4759,-1.4755,-1.4751,-1.5002,-1.5016,-1.5029,-1.5187,0,0,-1.5071,-1.5077,0,0,0,0,0,0,0,0,-1.4257,-1.4285,-1.4526,-1.4533,-1.4541,-1.4712,-1.4675,-1.4888,-1.4763,-1.4679,-1.4754,-1.475,-1.4914,-1.4934,-1.4988,-1.5199,-1.521,-1.5072,-1.508,-1.5086,-1.509,0,0,0,0,0,0,0,-1.4243,-1.4275,-1.4585,-1.453,-1.4539,-1.4548,-1.4574,-1.4716,-1.4815,-1.4686,-1.4689,-1.4716,-1.4917,-1.4975,-1.4994,-1.5214,-1.5072,-1.5084,-1.5092,-1.5098,-1.5572,-1.5576,0,0,0,0,0,0,-1.4219,-1.4263,-1.4577,-1.4592,-1.4387,-1.4559,-1.4587,-1.4661,-1.4813,-1.4832,-1.4719,-1.4717,-1.4953,-1.4978,-1.5003,-1.5202,-1.5086,-1.5099,-1.5107,-1.5567,-1.5573,-1.5577,0,0,0,0,0,0,-1.4209,-1.4246,-1.4567,-1.4428,-1.447,-1.457,-1.4652,-1.4667,-1.4725,-1.4838,-1.4856,-1.4759,-1.4951,-1.4984,-1.5142,-1.5211,-1.5105,-1.5117,-1.5562,-1.5569,-1.5575,-1.5598,0,0,0,0,0,0,-1.4197,-1.4243,-1.4302,-1.4429,-1.4477,-1.4699,-1.4656,-1.4675,-1.4747,-1.4746,-1.488,-1.4899,-1.4951,-1.5121,-1.5155,-1.5228,-1.5128,-1.5556,-1.5565,-1.5573,-1.5592,-1.5604,-1.5615,0,0,0,0,0,-1.4181,-1.43,-1.4305,-1.4342,-1.4552,-1.4703,-1.4731,-1.4785,-1.4753,-1.4815,-1.4887,-1.4895,-1.5196,-1.5137,-1.5176,-1.5253,-1.5552,-1.5563,-1.5572,-1.5586,-1.5602,-1.5615,0,0,0,0,0,0,-1.4181,-1.4317,-1.4324,-1.4487,-1.4583,-1.4707,-1.4787,-1.48,-1.491,-1.4904,-1.497,-1.5,-1.5156,-1.522,-1.5151,-1.5416,-1.5372,-1.539,-1.5369,-1.5385,-1.5397,-1.538,-1.5139,0,0,0,0,0,-1.4199,-1.4307,-1.4422,-1.4554,-1.4602,-1.4686,-1.4753,-1.4787,-1.489,-1.4932,-1.5016,-1.5119,-1.5237,-1.5314,-1.5429,-1.5599,-1.5632,-1.5672,-1.5684,-1.5693,-1.571,-1.5809,-1.5829,-1.561,-1.561,-1.561,0,0,-1.4239,-1.4327,-1.4392,-1.4556,-1.4635,-1.4749,-1.472,-1.4841,-1.4928,-1.4952,-1.5106,-1.5171,-1.529,-1.5456,-1.5533,-1.5514,-1.5777,-1.5706,-1.5713,-1.5724,-1.5821,-1.5842,-1.586,-1.5617,-1.5615,-1.5614,0,0,-1.4371,-1.4446,-1.4567,-1.4645,-1.4763,-1.4819,-1.4847,-1.497,-1.5014,-1.5169,-1.519,-1.5295,-1.5496,-1.5581,-1.565,-1.5815,-1.5828,-1.585,-1.5915,-1.601,-1.6028,-1.6044,-1.6106,-1.6128,-1.5865,-1.5865,-1.5865,0,-1.4407,-1.4577,-1.4627,-1.4749,-1.4822,-1.4845,-1.497,-1.5045,-1.5196,-1.5248,-1.5223,-1.5477,-1.5559,-1.5747,-1.5787,-1.5841,-1.5879,-1.5837,-1.602,-1.6037,-1.6053,-1.6113,-1.6136,-1.5868,-1.5867,-1.5867,-1.5867,0,-1.4617,-1.4735,-1.4818,-1.4961,-1.5043,-1.5165,-1.5238,-1.5316,-1.5342,-1.54,-1.556,-1.5658,-1.5795,-1.5841,-1.5868,-1.6034,-1.6019,-1.6006,-1.5964,-1.6075,-1.6133,-1.6157,-1.5871,-1.587,-1.5869,-1.5869,0,0,-1.4758,-1.4926,-1.4957,-1.5023,-1.5155,-1.5249,-1.5373,-1.5504,-1.5571,-1.5674,-1.5783,-1.5953,-1.5943,-1.6021,-1.6059,-1.6142,-1.6271,-1.612,-1.6124,-1.6148,-1.6464,-1.6476,-1.6501,-1.6278,-1.6282,-1.6286,-1.6456,0,-1.4908,-1.5128,-1.5177,-1.5368,-1.548,-1.5503,-1.5612,-1.5707,-1.5765,-1.5871,-1.5936,-1.6057,-1.6031,-1.608,-1.6163,-1.6237,-1.6336,-1.6225,-1.6385,-1.639,-1.6358,-1.6531,-1.6544,-1.6699,-1.6478,-1.6482,-1.6485,0,-1.5113,-1.5219,-1.542,-1.5539,-1.5588,-1.5685,-1.581,-1.5909,-1.6018,-1.6055,-1.6142,-1.6171,-1.6305,-1.6252,-1.6441,-1.6365,-1.6433,-1.6479,-1.6486,-1.6507,-1.6447,-1.6561,-1.6749,-1.6774,-1.6521,-1.6518,-1.6515,0,-1.5201,-1.5394,-1.554,-1.5595,-1.5736,-1.5805,-1.5867,-1.5972,-1.6048,-1.6158,-1.621,-1.6334,-1.6404,-1.6501,-1.6565,-1.6519,-1.675,-1.6701,-1.6788,-1.6787,-1.6839,-1.6836,-1.7045,-1.6875,-1.6875,-1.6874,-1.6874,0,-1.5366,-1.549,-1.5581,-1.5672,-1.5811,-1.5868,-1.6006,-1.6069,-1.6162,-1.6268,-1.6296,-1.6395,-1.647,-1.6581,-1.663,-1.6781,-1.6812,-1.6848,-1.6861,-1.6849,-1.6845,-1.6897,-1.689,-1.688,-1.6879,-1.6878,-1.6877,0,-1.549,-1.5555,-1.5717,-1.5837,-1.587,-1.5968,-1.6073,-1.6163,-1.6221,-1.6355,-1.6389,-1.6482,-1.6614,-1.6685,-1.685,-1.6884,-1.7054,-1.7059,-1.7017,-1.7024,-1.7108,-1.7101,-1.7363,-1.7402,-1.7201,-1.7203,-1.7204,0,-1.5593,-1.5688,-1.5818,-1.5889,-1.5953,-1.6067,-1.6145,-1.6204,-1.6285,-1.6416,-1.6492,-1.6624,-1.6734,-1.6944,-1.7029,-1.7156,-1.7167,-1.725,-1.7187,-1.7172,-1.7174,-1.717,-1.7181,-1.7263,-1.7264,-1.7266,-1.7267,0,-1.5771,-1.5798,-1.5907,-1.6029,-1.612,-1.6219,-1.6317,-1.6375,-1.6451,-1.654,-1.6674,-1.6759,-1.6927,-1.706,-1.7194,-1.7263,-1.7281,-1.7285,-1.7313,-1.7304,-1.7278,-1.7298,-1.7052,-1.7281,-1.7279,-1.7278,-1.7278,-1.7277,-1.5891,-1.5977,-1.6082,-1.6204,-1.6283,-1.6375,-1.6466,-1.6535,-1.6646,-1.6786,-1.6815,-1.6958,-1.7067,-1.7248,-1.732,-1.7435,-1.7419,-1.7458,-1.7469,-1.7479,-1.7485,-1.7255,-1.7459,-1.7459,-1.7459,-1.7459,-1.7458,0,-1.6074,-1.6142,-1.6252,-1.6388,-1.6485,-1.6487,-1.6596,-1.6678,-1.6802,-1.6901,-1.7008,-1.7163,-1.7293,-1.7386,-1.7519,-1.7593,-1.7605,-1.7627,-1.7624,-1.7641,-1.7489,-1.7454,-1.7615,-1.7615,-1.7615,-1.7615,-1.7615,-1.7615,-1.618,-1.6328,-1.6369,-1.6558,-1.6626,-1.6764,-1.6827,-1.6913,-1.6992,-1.7163,-1.727,-1.7328,-1.7427,-1.7567,-1.7687,-1.7711,-1.7761,-1.7783,-1.7809,-1.7667,-1.7651,-1.7635,-1.7603,-1.7792,-1.7793,-1.7952,-1.7953,-1.7955]},{"header":{"parameterUnit":"m.s-1","parameterCategory":1,"la1":30.2991,"la2":30.254,"lo1":-89.0895,"lo2":-89.0444,"dy":0.0017,"dx":0.0017,"nx":28,"ny":28,"refTime":"2023-03-27T15:00:00:Z","depth":0,"parameterNumber":3,"parameterNumberName":"V-component_of_WINDS"},"data":[0,0,0,0,0,0,0,0,0,0,0,0,0,0,0,0,0,0,0,0,0,0,0,0,0,0,0,0,0,0,0,0,0,0,0,0,0,0,0,0,0,0,0,0,0,0,0,0,0,0,0,0,0,0,0,0,0,0,-5.9776,-5.9776,0,-5.9785,-5.9785,-5.9785,-5.9721,-5.9719,-5.9717,-5.9715,-5.9721,-5.9723,-5.9725,0,0,0,0,0,0,0,0,0,0,0,0,0,-5.9703,-5.9705,-5.9776,-5.9776,-5.9777,-5.9785,-5.9785,-5.9785,-5.9721,-5.9719,-5.9716,-5.9714,-5.9721,-5.9723,-5.9725,0,0,0,0,0,0,0,0,0,0,0,0,0,-5.9726,-5.9706,-5.9776,-5.9746,-5.9743,-5.9785,-5.9785,-5.9785,-5.9721,-5.9719,-5.9716,-5.9713,-5.972,-5.9723,-5.9725,-5.9796,0,0,-5.9734,-5.9735,0,0,0,0,0,0,0,0,-5.9724,-5.9728,-5.975,-5.9748,-5.9745,-5.9749,-5.9761,-5.9789,-5.9722,-5.9729,-5.9715,-5.9712,-5.9732,-5.9734,-5.9741,-5.9796,-5.9796,-5.9734,-5.9736,-5.9737,-5.9737,0,0,0,0,0,0,0,-5.9723,-5.9728,-5.9779,-5.975,-5.9747,-5.9731,-5.9731,-5.9766,-5.9746,-5.9729,-5.9724,-5.9726,-5.973,-5.9739,-5.9741,-5.9797,-5.9734,-5.9736,-5.9738,-5.9739,-5.9912,-5.9914,0,0,0,0,0,0,-5.9726,-5.9727,-5.9779,-5.978,-5.9728,-5.9734,-5.9735,-5.975,-5.9745,-5.9742,-5.9728,-5.9723,-5.9735,-5.9738,-5.9741,-5.9825,-5.9737,-5.9739,-5.9741,-5.9909,-5.9912,-5.9915,0,0,0,0,0,0,-5.9725,-5.9731,-5.9779,-5.9752,-5.9757,-5.9739,-5.9757,-5.9752,-5.976,-5.9745,-5.9741,-5.9741,-5.9733,-5.9737,-5.9783,-5.9824,-5.974,-5.9743,-5.9905,-5.991,-5.9914,-5.9992,0,0,0,0,0,0,-5.9723,-5.9731,-5.9758,-5.9753,-5.9759,-5.9822,-5.9759,-5.9754,-5.9765,-5.9759,-5.9756,-5.9752,-5.9732,-5.978,-5.9786,-5.9826,-5.9745,-5.9901,-5.9907,-5.9912,-5.9986,-5.9998,-6.0009,0,0,0,0,0,-5.972,-5.9778,-5.976,-5.9766,-5.9792,-5.9824,-5.9827,-5.9803,-5.9769,-5.9796,-5.9786,-5.9753,-5.9818,-5.9785,-5.9792,-5.9833,-5.9899,-5.9906,-5.9912,-5.998,-5.9996,-6.0009,0,0,0,0,0,0,-5.9787,-5.9777,-5.9756,-5.9815,-5.9821,-5.9813,-5.9846,-5.982,-5.9835,-5.9828,-5.9796,-5.9796,-5.9848,-5.9845,-5.9808,-5.9902,-5.9853,-5.9861,-5.9902,-5.9917,-5.9929,-5.9928,-5.9747,0,0,0,0,0,-5.9809,-5.9836,-5.9826,-5.9879,-5.9883,-5.9865,-5.9877,-5.9859,-5.9863,-5.9865,-5.9859,-5.9864,-5.9886,-5.9901,-5.992,-5.9985,-5.9984,-6.0017,-6.0029,-6.0039,-6.0046,-6.0081,-6.0096,-5.9937,-5.9937,-5.9937,0,0,-5.9853,-5.9851,-5.987,-5.9892,-5.9895,-5.9924,-5.9867,-5.99,-5.9921,-5.987,-5.9914,-5.991,-5.9913,-5.997,-5.9994,-5.9969,-6.009,-6.0047,-6.0055,-6.0057,-6.009,-6.0105,-6.0118,-5.9942,-5.9941,-5.994,0,0,-5.995,-5.9951,-5.9996,-6.0,-6.0006,-5.9993,-6.0004,-6.0001,-5.9997,-6.0041,-6.0003,-6.0028,-6.0066,-6.0071,-6.0079,-6.018,-6.015,-6.0187,-6.0249,-6.0284,-6.0296,-6.0307,-6.0344,-6.0358,-6.0194,-6.0194,-6.0195,0,-6.0004,-6.0047,-6.0022,-6.0058,-6.0069,-6.0026,-6.0071,-6.0076,-6.0087,-6.0096,-6.0067,-6.0116,-6.0115,-6.0173,-6.0198,-6.0205,-6.0217,-6.0187,-6.0297,-6.0307,-6.0317,-6.0352,-6.0366,-6.0199,-6.0198,-6.0198,-6.0198,0,-6.0115,-6.0146,-6.0181,-6.0195,-6.021,-6.025,-6.0231,-6.0249,-6.0229,-6.022,-6.0266,-6.0264,-6.0283,-6.0295,-6.0275,-6.035,-6.0334,-6.0302,-6.0252,-6.0337,-6.037,-6.0383,-6.0205,-6.0204,-6.0202,-6.0201,0,0,-6.0252,-6.0253,-6.0267,-6.0273,-6.0277,-6.03,-6.0339,-6.0359,-6.0376,-6.0385,-6.0417,-6.0452,-6.0422,-6.0431,-6.0411,-6.0442,-6.0524,-6.0406,-6.0405,-6.0429,-6.0608,-6.0633,-6.0649,-6.0504,-6.0506,-6.0508,-6.0608,0,-6.0347,-6.0415,-6.0394,-6.0462,-6.0491,-6.0451,-6.0485,-6.0491,-6.0484,-6.0507,-6.0498,-6.0524,-6.0482,-6.0488,-6.0516,-6.0508,-6.0559,-6.05,-6.0534,-6.0535,-6.0535,-6.0665,-6.0692,-6.0786,-6.062,-6.0622,-6.0624,0,-6.0467,-6.0484,-6.0555,-6.0557,-6.0568,-6.0599,-6.0617,-6.0639,-6.0645,-6.0638,-6.0649,-6.0623,-6.0662,-6.0612,-6.0664,-6.0625,-6.0637,-6.0635,-6.0638,-6.0641,-6.0585,-6.0672,-6.0815,-6.0829,-6.0643,-6.0642,-6.064,0,-6.0561,-6.0601,-6.065,-6.0657,-6.0659,-6.0682,-6.0684,-6.0687,-6.0702,-6.0717,-6.0725,-6.0744,-6.0755,-6.077,-6.075,-6.0716,-6.0806,-6.0754,-6.0801,-6.0802,-6.0822,-6.0822,-6.097,-6.083,-6.0829,-6.0829,-6.0829,0,-6.067,-6.0716,-6.0693,-6.0723,-6.0774,-6.0749,-6.0799,-6.0796,-6.08,-6.0829,-6.0795,-6.0822,-6.0795,-6.0819,-6.0804,-6.0851,-6.0855,-6.085,-6.0846,-6.0854,-6.0855,-6.0862,-6.0855,-6.0833,-6.0832,-6.0831,-6.0831,0,-6.0784,-6.0771,-6.0821,-6.082,-6.0821,-6.0858,-6.0857,-6.0884,-6.0875,-6.0912,-6.0919,-6.0905,-6.0932,-6.0915,-6.0942,-6.0932,-6.0993,-6.0979,-6.0992,-6.0988,-6.1037,-6.1033,-6.1195,-6.1216,-6.1062,-6.1063,-6.1065,0,-6.0855,-6.089,-6.0893,-6.0911,-6.0915,-6.0944,-6.0958,-6.0936,-6.0953,-6.0964,-6.099,-6.1015,-6.1034,-6.108,-6.1072,-6.1093,-6.1079,-6.1135,-6.1082,-6.109,-6.1081,-6.108,-6.1084,-6.1146,-6.1148,-6.1149,-6.115,0,-6.0982,-6.0974,-6.0998,-6.102,-6.1039,-6.1055,-6.1067,-6.1083,-6.1061,-6.1082,-6.111,-6.1125,-6.1155,-6.118,-6.1198,-6.1199,-6.1171,-6.1167,-6.1179,-6.1188,-6.1194,-6.1193,-6.1022,-6.1163,-6.1162,-6.1161,-6.116,-6.116,-6.1077,-6.1107,-6.1115,-6.1143,-6.1151,-6.1164,-6.119,-6.1186,-6.121,-6.1233,-6.1218,-6.1252,-6.1259,-6.128,-6.1285,-6.1311,-6.1289,-6.1306,-6.1311,-6.1315,-6.1323,-6.119,-6.1314,-6.1314,-6.1313,-6.1313,-6.1313,0,-6.1204,-6.1208,-6.1234,-6.1254,-6.1276,-6.1249,-6.1263,-6.1283,-6.1314,-6.1323,-6.1343,-6.1377,-6.1402,-6.1396,-6.1419,-6.1441,-6.1429,-6.1448,-6.1446,-6.1447,-6.1341,-6.1329,-6.1457,-6.1457,-6.1457,-6.1457,-6.1457,-6.1457,-6.1272,-6.1322,-6.1316,-6.1369,-6.1372,-6.1407,-6.1417,-6.1429,-6.1436,-6.1476,-6.1498,-6.1494,-6.1498,-6.1521,-6.1543,-6.154,-6.155,-6.1574,-6.1567,-6.1469,-6.1454,-6.1441,-6.1429,-6.1576,-6.1577,-6.1671,-6.1672,-6.1673]}]]